Weather History for Evansville, IN

Change the Weather History Date:

Thursday, February 7, 2013

  Actual Average Record
Temperature  
Mean Temperature 48 °F 34 °F  
Max Temperature 65 °F 44 °F 70 °F (1925)
Min Temperature 30 °F 25 °F -4 °F (1982)
Degree Days  
Heating Degree Days 17 31  
Month to date heating degree days 222 218  
Since 1 July heating degree days 2787 2997  
Cooling Degree Days 0 0  
Month to date cooling degree days 0 0  
Year to date cooling degree days 0 0  
Moisture  
Dew Point 41 °F    
Average Humidity 65    
Maximum Humidity 86    
Minimum Humidity 44    
Precipitation  
Precipitation 0.15 in 0.11 in 1.23 in (1921)
Month to date precipitation 0.31 0.83  
Year to date precipitation 7.08 3.93  
Snow  
Snow 0.00 in 0.10 in 2.00 in (1979)
Month to date snowfall 0.8 1.0  
Since 1 July snowfall 11.8 7.9  
Snow Depth 0.00 in    
Sea Level Pressure  
Sea Level Pressure 29.95 in    
Wind  
Wind Speed 7 mph (West)    
Max Wind Speed 18 mph    
Max Gust Speed 26 mph    
Visibility 8 miles    
Events Rain    
T = Trace of Precipitation, MM = Missing Value Source: NWS Daily Summary

Daily Weather History Graph

Daily Weather History Graph

Search for Another Location

Airport:

Trip Planner

Search our weather history database for the weather conditions in past years. The results will help you decide how hot, cold, wet, or windy it might be!

Date:

Astronomy

Feb. 07, 2013 Rise Set
Actual Time 6:48 AM CST 5:20 PM CST
Civil Twilight 6:21 AM CST 5:47 PM CST
Nautical Twilight 5:50 AM CST 6:18 PM CST
Astronomical Twilight 5:19 AM CST 6:49 PM CST
Moon 4:26 AM CST (2/7) 2:45 PM CST (2/7)
Length of Visible Light 11h 26m
Length of Day
10h 31m
Waning Crescent, 9% of the Moon is Illuminated
Feb 7
Waning Crescent
Feb 10
New
Feb 17
First Quarter
Feb 25
Full
Mar 4
Last Quarter

Hourly Weather History & Observations

Time (CST) Temp. Windchill Dew Point Humidity Pressure Visibility Wind Dir Wind Speed Gust Speed Precip Events Conditions
12:54 AM 37.0 °F 33.3 °F 30.0 °F 76% 30.14 in 8.0 mi East 4.6 mph - N/A   Partly Cloudy
1:54 AM 37.9 °F - 30.0 °F 73% 30.14 in 8.0 mi Calm Calm - N/A   Scattered Clouds
2:54 AM 37.9 °F - 30.9 °F 76% 30.12 in 8.0 mi Calm Calm - N/A   Mostly Cloudy
3:54 AM 37.9 °F - 30.0 °F 73% 30.12 in 8.0 mi Calm Calm - N/A   Partly Cloudy
4:54 AM 34.0 °F 29.8 °F 28.9 °F 82% 30.09 in 7.0 mi ENE 4.6 mph - N/A   Clear
5:54 AM 30.0 °F 23.2 °F 26.1 °F 85% 30.08 in 6.0 mi NE 6.9 mph - N/A   Clear
6:54 AM 32.0 °F 26.4 °F 28.0 °F 85% 30.08 in 5.0 mi ENE 5.8 mph - N/A   Clear
7:54 AM 37.0 °F 33.3 °F 30.9 °F 79% 30.07 in 5.0 mi ESE 4.6 mph - N/A   Haze
8:54 AM 43.0 °F 41.3 °F 32.0 °F 65% 30.06 in 9.0 mi East 3.5 mph - N/A   Clear
9:54 AM 51.1 °F - 34.0 °F 52% 30.04 in 10.0 mi SE 6.9 mph - N/A   Clear
10:54 AM 55.0 °F - 36.0 °F 49% 30.02 in 10.0 mi SE 5.8 mph - N/A   Clear
11:54 AM 60.1 °F - 39.0 °F 46% 29.97 in 10.0 mi SSE 9.2 mph - N/A   Clear
12:54 PM 63.0 °F - 42.1 °F 46% 29.94 in 10.0 mi SSW 9.2 mph - N/A   Clear
1:54 PM 64.0 °F - 42.1 °F 45% 29.91 in 10.0 mi SSW 6.9 mph - N/A   Partly Cloudy
2:54 PM 64.9 °F - 44.1 °F 47% 29.90 in 10.0 mi SSW 10.4 mph - N/A   Clear
3:54 PM 63.0 °F - 46.0 °F 54% 29.88 in 10.0 mi SSW 10.4 mph - N/A   Partly Cloudy
4:54 PM 61.0 °F - 45.0 °F 56% 29.86 in 10.0 mi South 6.9 mph - N/A   Clear
5:54 PM 59.0 °F - 45.0 °F 60% 29.87 in 10.0 mi SSW 6.9 mph - N/A   Overcast
6:54 PM 57.9 °F - 45.0 °F 62% 29.87 in 10.0 mi SSW 6.9 mph - N/A   Mostly Cloudy
7:54 PM 57.0 °F - 46.9 °F 69% 29.86 in 10.0 mi SW 6.9 mph - 0.00 in Rain Light Rain
8:52 PM 55.4 °F - 51.8 °F 88% 29.87 in 5.0 mi West 9.2 mph - 0.08 in Rain Rain
8:54 PM 55.0 °F - 51.1 °F 86% 29.87 in 5.0 mi West 9.2 mph - 0.08 in Rain Rain
9:20 PM 53.6 °F - 51.8 °F 94% 29.87 in 7.0 mi West 9.2 mph - 0.02 in Rain Light Rain
9:33 PM 53.6 °F - 51.8 °F 94% 29.87 in 7.0 mi West 9.2 mph - 0.03 in Rain Light Rain
9:46 PM 53.6 °F - 50.0 °F 88% 29.87 in 8.0 mi NW 9.2 mph - 0.03 in Rain Light Rain
9:54 PM 53.1 °F - 48.9 °F 86% 29.88 in 9.0 mi NW 9.2 mph - 0.03 in Rain Light Rain
10:06 PM 53.6 °F - 48.2 °F 82% 29.87 in 10.0 mi WNW 9.2 mph - 0.00 in Rain Light Rain
10:14 PM 51.8 °F - 48.2 °F 88% 29.88 in 9.0 mi NW 10.4 mph - 0.00 in   Overcast
10:22 PM 51.8 °F - 48.2 °F 88% 29.88 in 7.0 mi NW 11.5 mph 17.3 mph 0.00 in Rain Light Rain
10:29 PM 51.8 °F - 48.2 °F 88% 29.88 in 5.0 mi NW 11.5 mph 17.3 mph 0.00 in Rain Rain
10:42 PM 51.8 °F - 48.2 °F 88% 29.88 in 4.0 mi NW 11.5 mph 20.7 mph N/A Rain Light Rain
10:54 PM 50.0 °F - 46.9 °F 89% 29.88 in 9.0 mi WNW 8.1 mph - 0.04 in Rain Light Rain
10:57 PM 50.0 °F - 46.4 °F 87% 29.89 in 10.0 mi NW 9.2 mph - 0.00 in Rain Light Rain
11:17 PM 48.2 °F - 44.6 °F 87% 29.90 in 10.0 mi NW 17.3 mph 26.5 mph 0.00 in   Overcast
11:24 PM 48.2 °F - 44.6 °F 87% 29.91 in 10.0 mi NW 17.3 mph 23.0 mph 0.00 in   Overcast
11:54 PM 46.9 °F - 43.0 °F 86% 29.92 in 9.0 mi NW 17.3 mph 24.2 mph 0.00 in Rain Light Rain